Theta_e
338 341 342 343 342 341 341 341 341 343 346 346 346 348 349 349 350 349 351 352 351 350 348 347 347 350 348 347 345 347 347 349 351 348 348 352 356 357 359 358 360 361 363 363 363 370 367 365 367 364 367 371 366 362 362 357 363 359 364 365 352 353 349 353 351 344 340 340 342 341 341 346 358 353 347 345 346 350 349 351 352 352 348 348 352
338 339 342 343 341 341 341 340 345 343 345 345 346 346 348 350 349 349 350 350 351 350 349 348 349 350 347 346 346 346 347 347 346 346 348 356 355 355 360 358 359 361 363 366 364 366 366 366 367 365 369 366 369 371 368 377 361 352 357 355 351 349 353 349 354 349 343 338 335 341 346 339 354 343 344 350 350 352 351 345 344 343 342 345 349
336 339 340 341 342 341 341 340 342 344 345 345 347 347 346 347 348 348 349 349 350 351 349 348 350 350 349 348 347 345 348 349 348 347 355 354 354 355 359 357 360 360 363 367 367 368 366 367 368 369 361 367 368 363 365 363 360 357 353 356 353 354 352 352 349 348 340 344 347 337 332 333 342 346 348 350 348 351 348 343 346 341 342 342 345
334 337 338 341 341 340 340 340 341 343 345 345 347 347 347 349 348 348 348 349 349 351 353 350 351 350 349 349 348 346 345 349 349 350 351 354 353 356 361 358 361 361 363 362 364 363 364 367 365 366 367 368 366 365 364 361 359 356 355 361 356 345 346 350 359 353 345 340 331 337 336 338 329 333 340 342 346 348 348 348 344 344 342 342 350
333 336 338 340 340 339 339 341 342 342 343 345 347 348 349 350 349 349 348 349 349 354 352 350 352 350 349 349 349 347 348 347 345 346 349 352 352 357 358 360 360 361 360 361 366 362 365 364 364 365 366 366 370 365 363 363 359 358 360 359 356 354 350 352 356 353 346 346 345 334 331 328 330 334 337 337 345 339 343 347 346 347 343 347 348
333 334 337 339 341 339 340 342 341 341 343 345 348 348 349 350 351 350 350 350 351 354 351 350 353 346 345 343 342 341 341 341 341 343 347 349 350 359 360 361 361 359 360 359 364 368 368 366 363 364 367 364 368 362 363 360 358 356 358 359 359 359 354 354 351 359 357 358 356 345 337 329 333 341 335 331 344 348 342 343 343 341 346 345 346
333 335 338 340 340 340 340 341 342 341 343 346 347 348 349 350 351 350 351 350 351 353 356 355 350 351 345 343 343 341 341 343 346 347 348 348 352 358 358 358 358 360 361 360 361 365 366 364 365 366 365 366 367 364 360 355 355 359 365 361 362 364 361 350 353 352 359 357 353 348 353 349 345 340 335 338 330 338 347 343 339 342 354 355 353
330 333 337 339 341 341 340 340 342 343 344 345 346 348 348 349 350 349 352 352 350 356 354 354 352 352 347 346 347 346 345 345 347 347 349 352 351 355 356 356 358 358 359 358 360 365 364 363 364 363 363 366 367 356 353 358 362 363 366 365 368 370 361 353 352 355 349 351 361 343 345 342 341 341 340 334 332 329 333 342 342 343 349 352 353
333 332 336 338 340 341 342 341 342 344 345 344 344 348 349 350 350 351 352 352 350 357 354 355 356 354 350 348 348 348 349 349 353 351 352 354 352 353 355 354 356 358 361 359 363 364 366 364 361 361 364 364 372 359 357 360 359 359 361 364 362 361 362 362 356 354 354 350 354 342 340 339 342 345 344 341 339 332 333 336 337 344 344 346 349
340 332 337 339 341 342 344 343 342 342 345 346 345 349 350 350 350 351 351 351 352 355 354 355 356 358 352 350 347 347 351 350 352 349 349 352 350 352 354 353 356 358 360 363 362 362 363 364 363 360 362 360 365 356 357 358 358 358 361 362 362 358 361 362 359 358 358 356 354 351 342 343 344 342 345 341 342 340 333 332 337 335 335 342 347
338 334 336 339 342 343 344 343 343 343 343 344 347 349 350 349 349 349 351 352 353 355 354 354 355 355 352 352 348 349 348 349 350 349 351 351 348 350 353 353 356 357 358 361 361 362 361 364 363 361 358 369 366 360 357 356 358 357 358 364 365 362 363 362 361 360 360 360 353 353 347 342 338 338 339 340 337 337 337 337 337 340 338 337 343
337 335 333 339 339 341 343 343 343 342 342 342 347 348 349 349 349 348 350 352 353 356 355 353 355 353 353 354 347 352 350 350 351 350 352 350 348 350 354 352 354 355 357 358 358 360 361 361 362 360 364 359 361 363 359 358 357 357 358 360 361 364 364 365 358 355 355 359 354 352 349 347 347 344 344 340 338 341 338 337 338 342 342 342 348
337 335 332 337 339 339 340 341 342 342 342 341 346 348 349 349 349 348 348 352 352 355 354 354 353 352 352 355 349 355 351 351 353 352 353 353 353 352 355 352 354 355 354 356 358 358 360 359 358 357 359 360 361 365 361 364 362 360 360 361 360 359 362 358 358 359 358 353 354 356 348 347 346 347 346 345 344 347 343 341 343 346 339 339 344
338 336 333 333 339 340 340 341 342 342 342 341 346 348 348 349 349 348 347 352 352 354 354 353 353 353 353 355 352 357 353 352 353 352 353 354 354 353 354 354 353 352 355 354 356 357 358 361 360 359 358 360 362 364 365 364 363 362 362 357 359 360 362 361 359 358 357 355 354 349 347 353 347 348 347 348 345 345 342 339 337 345 342 339 343
338 337 337 335 336 339 340 341 342 342 342 342 345 348 348 348 349 349 347 352 352 352 354 353 354 354 355 354 354 356 353 354 353 352 352 353 353 353 351 352 354 352 352 353 356 354 354 359 360 359 359 363 364 366 368 366 367 364 364 361 360 363 360 362 361 359 356 352 354 349 350 349 349 345 347 347 350 349 346 346 344 339 337 339 339
339 337 339 339 335 339 340 340 341 341 342 342 344 348 348 348 349 350 348 352 352 352 353 354 353 354 355 353 354 355 357 354 356 357 353 353 352 350 352 351 353 353 352 356 354 356 356 358 361 359 362 364 366 364 362 362 362 363 360 359 358 366 361 361 359 360 358 356 354 353 349 348 349 348 345 345 350 351 348 348 345 341 333 329 334
338 339 337 339 342 337 340 340 341 341 342 341 344 348 348 348 349 350 348 352 352 352 352 354 353 353 353 353 354 354 354 351 353 353 355 353 351 350 350 352 353 353 353 356 353 351 358 358 359 358 361 363 364 364 362 361 362 359 361 359 359 361 360 357 361 359 359 359 354 354 352 351 351 351 350 354 352 350 352 351 347 341 339 333 328
339 338 338 339 339 344 341 340 341 342 343 343 346 348 350 350 350 351 349 350 351 353 352 353 352 352 353 353 353 353 353 352 351 352 351 351 352 352 352 350 349 353 355 353 353 351 354 365 356 356 360 361 362 363 362 360 361 361 362 361 361 361 360 362 361 360 359 357 357 355 357 353 352 353 353 355 353 350 353 353 348 346 344 337 334
338 337 341 343 338 341 343 338 341 342 345 343 348 348 352 351 351 353 350 351 352 354 353 353 353 352 354 353 353 353 352 351 350 351 350 350 350 352 351 350 351 350 353 353 350 352 352 356 357 358 358 361 361 361 361 359 360 359 360 360 361 361 360 362 363 363 361 358 353 352 354 352 352 350 352 352 353 351 351 353 346 347 347 345 342
335 337 337 337 343 345 343 341 338 340 342 344 348 348 351 352 352 353 352 352 352 352 353 351 353 352 352 353 353 353 352 350 349 349 350 350 350 349 350 349 352 351 351 351 353 351 352 353 354 355 355 358 359 359 361 360 360 358 358 359 358 358 359 358 359 359 357 354 355 354 356 355 353 352 350 348 347 349 351 351 347 346 348 348 346
337 337 336 337 338 343 345 344 344 341 345 347 347 348 351 352 352 353 352 352 352 352 352 352 352 351 351 350 351 351 351 350 349 349 350 350 350 350 349 350 352 351 351 351 350 351 353 352 353 353 351 351 355 357 357 359 360 358 358 358 358 359 358 359 360 360 362 360 357 357 357 357 355 351 349 349 348 347 350 351 348 349 348 347 344
339 338 337 337 342 344 344 344 343 344 346 344 348 346 348 351 352 352 353 352 352 352 352 352 352 351 350 351 352 352 352 350 349 348 349 349 350 350 350 351 350 351 351 351 351 350 351 353 352 352 351 351 352 354 357 356 358 358 359 361 359 356 357 359 360 358 359 360 357 354 356 358 358 353 352 352 352 349 348 346 349 348 346 345 346
342 342 344 342 342 344 343 343 344 343 343 345 342 344 346 349 352 351 352 351 352 352 351 351 351 351 349 351 352 352 352 350 349 348 348 349 350 351 352 351 350 350 352 351 353 352 351 352 352 351 352 352 353 354 355 355 357 358 358 358 357 356 355 355 358 358 358 357 354 354 353 353 354 353 356 354 353 349 348 346 347 346 350 352 351
341 342 344 344 347 346 345 345 342 341 344 345 346 344 345 343 344 351 351 351 352 351 349 349 349 350 350 349 349 351 351 350 349 348 347 348 349 349 352 351 351 350 350 352 353 353 354 355 353 353 355 355 356 357 355 356 354 356 357 356 355 354 355 355 355 355 357 356 355 354 355 359 359 356 356 355 356 356 353 352 352 352 350 352 360
338 340 341 343 344 344 345 343 341 343 345 345 345 344 344 345 344 346 350 351 350 350 349 348 348 348 348 348 348 349 349 350 349 348 348 347 347 347 349 350 349 349 349 351 354 354 354 354 354 356 357 353 350 353 354 352 354 356 356 356 356 355 355 355 355 356 362 356 356 357 355 354 356 353 355 354 354 356 357 355 354 356 354 357 359
335 337 337 339 341 343 343 342 341 343 343 344 344 344 344 344 345 345 347 346 343 346 349 350 347 347 347 347 346 347 347 348 349 349 348 347 347 346 345 349 349 348 349 350 352 356 355 358 359 359 356 354 352 353 351 348 349 352 352 351 352 355 356 358 358 357 356 356 356 356 358 357 357 355 356 356 355 357 358 355 355 355 357 357 354
334 337 337 337 340 340 341 343 344 342 344 346 345 345 346 345 345 347 347 346 346 345 344 346 350 346 348 349 349 347 345 347 349 348 348 349 347 349 350 350 355 351 351 352 351 351 353 354 358 358 356 353 353 353 353 353 352 353 354 350 354 354 354 354 355 356 356 356 357 357 354 358 354 351 351 350 348 347 350 352 357 356 357 356 356
336 336 336 336 337 340 340 341 343 344 343 346 346 344 345 346 346 346 345 346 349 349 349 349 347 343 348 351 348 352 352 352 353 354 352 351 349 350 352 353 352 351 352 353 352 352 353 354 354 355 354 354 353 355 355 354 355 356 354 353 354 355 354 355 356 355 356 357 355 354 353 353 352 351 354 353 351 352 354 354 357 357 356 354 353
333 334 335 335 335 337 339 341 340 343 342 342 342 343 344 345 347 347 345 344 349 350 348 347 349 350 349 345 343 346 349 351 352 358 357 354 352 351 356 355 356 355 357 352 354 354 353 355 355 353 354 356 356 354 353 353 354 357 358 359 356 354 356 356 355 355 355 355 351 352 352 356 357 358 360 358 359 357 356 353 357 357 355 356 354
329 332 334 335 337 338 338 339 339 340 340 340 341 341 343 343 344 347 344 345 351 351 348 347 345 351 350 346 345 348 347 349 350 351 356 359 359 362 362 360 358 356 355 358 355 355 354 355 353 353 352 356 357 358 358 360 361 364 361 361 360 358 354 353 355 353 355 355 353 356 358 361 361 363 362 360 361 365 366 365 360 359 358 355 353
328 331 332 333 334 334 336 339 339 339 340 339 340 342 344 345 345 345 346 346 349 350 351 352 350 348 350 348 345 345 346 349 348 349 352 360 360 361 359 356 355 356 355 354 355 352 354 352 351 349 349 352 354 358 347 340 344 354 361 358 357 359 358 358 357 355 354 354 354 354 354 356 358 361 357 360 360 363 367 367 366 367 367 358 354
327 330 331 331 332 332 333 336 339 340 341 342 343 344 345 346 345 346 348 349 347 346 347 348 344 347 347 349 348 346 345 345 349 350 353 358 359 358 356 354 354 354 354 354 352 354 352 350 352 353 352 353 350 343 333 338 339 342 352 356 357 361 358 354 356 354 351 350 349 350 351 354 354 355 355 355 359 364 364 363 363 363 363 364 364
328 330 330 330 330 332 333 335 337 340 343 344 344 343 344 344 347 349 351 348 346 345 345 344 346 348 348 347 346 343 341 340 341 348 354 356 356 357 356 354 354 355 354 352 352 354 350 347 350 351 353 350 338 334 331 334 334 336 343 352 353 356 355 355 354 350 348 347 347 348 350 351 354 358 358 355 354 358 362 362 361 361 362 362 350
330 332 333 332 332 332 335 337 338 339 340 345 349 347 347 350 350 350 349 347 347 347 347 346 347 347 347 348 347 345 342 341 342 347 354 355 355 354 355 353 353 351 350 352 353 353 351 349 349 351 348 338 332 330 328 330 330 331 335 346 351 354 355 354 351 349 348 346 347 348 347 347 349 349 350 352 354 357 355 354 353 352 354 361 363
330 331 333 334 334 335 335 336 339 342 342 344 345 348 348 348 349 348 349 349 349 350 349 345 343 344 346 351 352 348 346 348 350 351 350 351 351 350 352 352 350 349 349 349 351 352 352 353 352 350 339 330 326 323 324 325 325 327 330 342 349 355 351 351 351 350 349 349 349 349 346 345 346 346 347 351 356 356 354 355 353 352 353 353 353
331 332 332 333 334 334 335 336 339 340 340 341 341 343 342 342 344 344 343 343 343 344 344 345 345 346 346 346 349 350 348 348 349 349 349 348 348 345 345 347 350 349 350 351 350 352 352 351 351 345 331 325 320 318 319 320 321 323 330 344 350 353 350 350 350 351 350 350 350 346 345 344 345 347 345 341 348 353 353 352 349 349 349 351 352
332 334 333 334 334 334 335 335 336 337 337 337 338 338 337 337 337 338 338 339 338 338 339 340 341 342 343 344 345 345 344 345 345 346 345 345 345 345 345 347 346 348 349 349 348 349 352 352 350 337 328 320 317 316 315 316 317 319 334 346 353 353 351 350 349 349 351 350 349 345 343 343 346 337 333 325 334 354 350 351 349 350 351 350 349
334 335 335 334 335 335 335 333 333 333 335 336 336 336 335 334 334 335 335 336 336 336 338 339 339 340 340 342 344 345 344 342 343 344 344 344 345 345 344 347 345 346 347 349 350 350 349 348 341 330 323 318 317 317 314 314 315 318 332 344 352 353 350 348 348 350 351 348 350 357 350 335 331 329 324 323 331 345 343 346 350 350 349 348 348
332 332 332 331 330 330 330 330 330 331 332 334 335 334 333 332 333 333 334 334 334 335 336 337 337 339 340 340 341 342 342 342 340 340 341 341 341 342 344 345 344 345 346 347 349 345 339 336 333 330 331 321 320 319 313 312 313 316 330 342 347 348 351 349 347 347 348 347 342 345 347 338 332 327 318 320 327 340 336 337 339 341 344 346 336
331 331 332 330 330 329 327 327 327 328 330 330 330 331 330 330 330 332 332 332 333 335 336 337 337 338 339 339 339 340 339 339 339 338 339 338 339 339 338 339 342 345 346 343 338 333 331 330 329 326 324 323 321 318 316 311 312 314 320 330 326 330 333 341 348 349 347 345 339 333 332 322 319 317 314 314 316 321 331 333 337 338 335 334 331
326 327 332 328 327 327 326 327 327 327 327 327 327 326 326 327 328 329 331 333 334 335 336 336 337 338 338 337 337 337 336 337 337 337 337 336 335 333 332 331 330 330 330 329 328 326 324 323 324 325 325 325 323 319 317 310 310 311 315 323 324 325 325 328 335 347 346 343 337 332 330 324 316 315 313 312 312 316 328 335 330 329 330 331 328
329 331 328 326 324 323 324 325 326 327 328 328 327 325 324 324 325 326 328 332 334 334 334 334 334 334 336 336 336 336 336 336 336 335 333 333 333 332 331 329 327 326 324 323 323 324 322 322 323 323 323 321 323 323 320 313 310 309 311 317 324 326 327 330 340 339 338 335 334 332 330 323 315 315 312 310 311 316 327 333 327 316 315 318 327
325 324 326 324 322 321 321 322 325 327 328 329 328 326 326 326 325 326 329 329 329 330 331 331 331 331 332 333 334 335 335 335 335 334 332 330 331 330 330 328 326 324 323 322 322 322 320 319 319 319 320 320 320 321 320 319 313 309 310 313 316 324 323 332 329 328 329 331 333 333 332 325 312 307 307 309 310 316 331 321 311 313 317 322 336
327 325 324 326 324 324 325 326 328 329 328 326 324 323 324 323 323 327 328 330 329 329 329 330 330 329 329 331 331 332 332 333 333 333 332 330 329 328 328 327 325 324 323 322 322 322 320 318 317 317 318 319 319 319 322 320 318 314 312 311 313 315 319 329 332 330 329 329 326 326 322 311 309 305 307 310 313 321 323 313 313 318 329 337 334
324 325 327 326 324 325 326 327 328 329 328 326 325 323 323 321 323 326 325 326 327 328 328 328 328 328 327 326 325 323 323 325 326 326 325 325 325 327 326 326 326 324 323 322 322 323 321 320 318 316 316 317 319 319 319 323 322 321 316 313 315 317 320 322 332 331 332 327 319 312 311 313 315 313 316 317 323 330 323 321 321 327 338 331 332
322 325 326 326 326 327 327 327 328 330 330 330 329 327 324 324 325 326 324 325 325 326 326 325 326 326 325 324 320 317 316 317 319 320 321 318 316 317 317 316 321 326 325 324 324 324 323 321 318 316 315 315 316 317 318 320 322 322 322 319 318 321 330 332 333 328 328 324 321 319 321 323 325 328 333 335 337 336 332 332 333 337 333 333 332
323 324 326 324 324 324 326 327 327 329 330 331 331 333 332 331 327 326 326 327 327 326 326 325 324 323 322 319 315 312 312 313 313 313 316 317 315 311 312 314 313 313 319 326 327 326 324 322 322 321 320 319 318 317 316 316 316 316 317 318 320 323 326 327 327 323 323 325 331 335 329 322 324 327 332 334 334 338 337 334 330 331 333 334 334
323 323 323 323 323 323 324 324 325 327 327 327 328 329 331 330 330 328 329 330 330 326 323 324 324 322 320 318 317 319 314 311 312 312 311 312 315 314 311 310 309 310 313 315 316 318 317 318 317 318 321 319 316 313 310 309 312 311 311 312 316 318 316 317 320 316 315 323 328 332 332 335 335 334 333 335 333 330 331 332 329 327 327 330 334
326 327 327 326 325 325 325 325 325 326 326 327 328 328 329 329 329 328 331 329 326 330 326 322 323 323 322 322 317 316 314 313 313 312 310 308 308 313 314 311 310 308 309 311 314 314 315 311 311 310 312 314 313 312 311 304 307 303 306 308 311 312 310 311 317 310 313 320 325 329 332 333 332 333 333 331 329 328 326 326 326 325 324 324 325
329 329 329 328 329 327 327 327 326 326 326 326 327 328 328 328 328 328 327 326 326 324 323 322 322 320 319 320 320 319 317 316 314 313 313 312 308 300 304 312 311 308 303 300 306 311 312 315 312 311 312 312 311 311 303 297 295 295 296 297 298 296 296 303 307 305 309 315 322 326 330 333 332 331 328 325 324 325 324 323 323 324 324 323 322
328 328 327 327 327 329 328 326 325 326 327 327 327 327 327 327 326 327 328 326 325 325 324 325 325 322 322 321 319 319 320 317 315 314 315 315 312 310 297 298 306 306 300 295 295 298 302 309 319 312 309 305 305 299 295 295 295 295 295 295 296 296 297 296 298 307 319 322 322 322 322 323 323 322 322 322 323 323 324 323 322 322 322 322 322
Wind_Speed
11 9 8 6 5 9 8 9 8 8 11 11 10 11 12 11 10 9 8 8 7 7 6 7 6 5 4 5 5 4 4 4 4 5 4 5 6 5 4 5 3 4 3 3 4 2 2 1 1 1 0 0 0 1 2 2 2 1 1 1 2 2 1 0 1 3 2 3 3 3 4 4 2 0 0 2 2 2 2 0 2 2 3 3 3
11 9 10 4 4 9 9 8 8 12 10 10 11 12 11 12 11 9 8 8 8 7 7 6 6 5 6 6 4 5 5 5 5 5 3 6 6 5 4 5 4 3 3 3 3 3 2 2 2 1 0 0 0 2 2 2 2 2 1 2 1 3 2 2 2 2 2 1 0 3 3 4 1 2 1 2 4 3 3 3 3 3 3 2 1
9 12 12 9 8 10 8 8 10 11 11 10 9 11 12 10 9 8 8 9 8 8 8 7 6 6 6 5 6 5 5 6 5 5 4 7 7 6 4 6 4 3 4 3 2 3 3 1 1 2 2 1 0 1 2 2 1 3 3 2 1 1 1 0 3 2 2 1 1 1 2 3 3 3 1 1 2 2 3 2 2 2 2 3 2
10 12 11 8 8 8 8 9 11 10 9 9 9 10 10 9 9 9 9 8 9 9 8 9 9 8 7 7 7 6 6 6 5 7 5 8 8 6 5 6 4 4 4 4 3 3 3 1 1 0 1 2 2 1 2 2 1 3 1 1 2 1 1 1 0 2 4 3 0 1 1 1 3 2 2 3 0 2 1 0 2 2 3 2 2
10 11 11 11 6 7 7 10 11 11 9 10 10 9 8 10 10 10 9 8 8 10 9 8 9 8 6 8 7 6 5 5 7 7 7 7 7 4 7 6 5 5 4 4 4 4 3 3 2 2 1 1 2 1 0 1 1 0 3 2 2 1 2 1 1 1 0 2 4 2 1 1 2 4 1 4 2 2 1 0 1 2 3 3 3
10 10 11 12 10 9 6 11 12 10 9 10 10 10 9 9 9 9 7 7 8 8 10 9 8 8 8 8 8 6 7 8 8 8 8 8 7 5 6 7 6 5 4 5 5 3 4 4 3 2 2 0 1 3 2 1 1 2 0 2 2 2 2 2 2 2 2 3 4 3 3 2 1 2 2 2 3 2 2 2 2 3 3 4 3
8 11 13 11 10 8 9 10 11 12 9 10 11 9 12 9 8 8 6 6 6 5 6 7 6 6 9 8 6 7 7 6 5 7 8 7 7 7 7 6 6 5 5 5 5 4 3 4 4 3 3 2 1 0 2 2 1 1 1 2 1 2 2 1 2 3 4 1 1 2 2 2 2 2 0 1 4 5 3 4 3 1 0 1 2
6 10 14 12 11 10 10 10 10 12 11 11 11 10 12 11 8 8 5 6 6 4 5 6 6 5 6 5 6 7 7 6 7 6 7 6 8 8 7 6 7 5 5 5 4 4 4 4 4 3 4 2 2 3 3 2 1 0 0 1 0 1 2 1 2 1 1 2 2 3 3 5 4 5 2 3 2 1 5 5 2 1 1 1 0
5 9 13 12 14 11 10 10 9 13 12 11 11 12 11 11 9 7 7 7 7 5 6 5 4 4 5 5 5 5 4 5 6 6 5 6 9 7 6 6 6 5 5 6 5 5 5 4 4 4 4 3 3 4 4 3 2 1 0 0 1 0 0 1 1 2 0 2 2 3 4 3 3 2 1 2 1 0 3 1 3 2 1 2 1
8 7 12 13 14 11 10 10 9 9 12 11 10 13 11 10 11 8 7 7 7 6 7 6 5 4 4 5 5 5 4 4 5 6 6 5 8 6 5 6 5 5 6 6 6 6 5 5 4 5 4 5 3 4 3 3 3 2 2 2 3 2 2 1 2 2 2 2 0 5 3 1 2 1 1 1 1 0 3 4 2 3 3 3 1
8 6 11 12 12 11 10 11 9 8 9 12 12 13 12 11 11 9 7 7 8 7 7 7 6 5 5 5 8 6 6 6 6 7 6 5 7 6 5 6 5 6 5 5 5 5 5 5 5 5 5 3 4 5 5 5 4 3 3 4 3 2 2 2 1 1 0 1 1 2 3 4 4 3 4 1 1 1 1 3 2 1 1 3 2
7 9 9 14 11 11 11 11 10 8 10 11 13 13 13 11 11 11 7 9 9 7 7 8 6 7 5 5 8 5 7 6 6 8 7 7 7 6 5 5 5 6 6 6 6 6 6 5 6 4 4 4 5 4 4 4 4 5 4 3 3 2 2 1 1 1 2 2 1 2 2 3 2 3 4 4 5 2 2 2 3 3 1 2 3
8 8 5 12 12 12 11 10 10 7 7 11 14 14 13 12 12 12 9 10 10 9 9 8 6 7 6 5 7 5 6 6 6 6 6 7 6 6 6 7 6 6 7 7 7 8 6 6 5 4 3 4 3 3 4 3 3 4 4 3 3 3 2 1 1 1 2 1 4 1 3 2 4 2 3 4 4 3 1 2 1 2 1 3 2
9 9 7 8 12 11 12 10 10 10 7 9 14 14 12 12 12 12 11 10 11 9 9 8 7 7 6 5 7 6 5 6 5 6 6 6 6 6 6 7 6 6 6 8 8 8 6 6 6 5 4 4 4 4 4 3 3 3 3 3 3 3 3 2 2 2 3 4 3 5 3 2 2 2 2 3 3 3 2 2 2 3 2 2 2
9 6 3 3 9 12 11 11 9 10 10 8 11 13 13 12 12 12 11 9 11 11 8 8 7 7 6 6 6 5 6 6 6 6 7 6 6 6 6 6 6 6 6 5 8 7 7 7 7 6 5 5 5 4 5 4 4 4 3 4 2 3 3 3 3 3 4 2 2 4 4 4 5 5 5 5 3 4 2 1 1 4 4 3 3
8 7 3 3 7 10 12 10 10 10 10 9 10 13 14 13 13 13 13 10 12 11 9 9 7 7 6 7 6 6 5 5 5 6 7 7 7 6 6 7 7 7 6 5 7 6 7 9 7 6 6 6 5 5 4 4 4 4 3 3 3 2 3 3 3 3 3 3 3 5 4 4 4 4 5 4 5 4 3 3 3 3 1 4 4
7 6 5 2 2 9 11 11 11 11 10 10 9 12 14 14 14 13 13 9 11 11 11 9 8 7 7 7 7 7 7 6 6 6 6 7 7 7 6 6 7 6 7 6 6 5 5 9 7 7 6 6 5 4 4 3 4 5 4 3 4 3 3 3 3 3 3 3 4 5 5 5 5 4 4 3 3 2 3 4 5 6 6 3 1
4 4 4 3 3 1 3 9 12 10 11 10 9 12 13 14 15 14 14 11 11 11 11 10 10 8 8 8 7 8 8 8 7 6 5 5 5 6 5 6 7 6 8 7 6 7 5 8 7 7 7 6 6 6 5 4 3 4 4 4 4 3 3 3 3 4 3 3 4 2 5 5 4 5 5 4 2 2 2 3 3 2 5 5 3
3 4 1 1 3 2 2 7 9 9 11 10 9 12 12 13 14 14 15 14 12 11 10 9 10 8 8 9 8 8 7 7 6 6 5 5 5 5 5 5 7 6 5 4 5 7 7 5 7 5 6 6 6 6 5 5 5 4 4 4 4 4 4 4 4 3 3 4 4 5 2 3 3 4 2 3 4 4 2 3 3 4 4 5 4
4 3 3 8 2 1 2 3 7 9 9 11 11 11 15 14 14 12 13 12 11 11 10 10 10 9 9 8 8 7 7 8 6 7 8 8 6 6 5 4 4 5 4 5 3 4 6 7 6 6 6 6 6 6 6 6 6 6 5 5 4 5 6 6 4 4 4 4 4 5 6 4 5 4 4 5 5 3 6 6 5 4 3 5 6
3 4 8 10 7 2 3 4 2 3 1 8 9 10 13 13 15 14 15 14 12 12 11 10 10 9 8 10 9 8 9 8 8 8 8 9 8 7 6 6 5 4 5 6 6 4 5 6 7 7 6 4 6 6 6 6 6 6 6 5 5 3 4 5 4 4 3 3 3 3 3 5 7 6 5 5 4 4 6 6 5 4 5 5 4
6 3 7 8 5 3 3 4 5 8 3 1 1 11 9 13 13 14 13 13 13 13 11 10 9 10 9 10 10 9 8 7 7 7 7 7 7 8 6 7 8 8 6 7 7 7 5 5 6 7 7 7 6 7 8 7 6 6 6 6 6 5 3 4 5 5 5 5 3 3 3 3 3 5 6 7 6 6 7 3 3 6 8 8 6
2 2 1 3 4 3 4 4 4 8 7 4 9 9 4 4 12 12 13 12 13 12 11 10 9 10 10 8 10 9 9 8 8 6 7 8 7 7 8 7 7 7 8 7 7 7 7 6 4 4 7 7 6 7 6 7 7 7 7 7 6 6 6 5 5 6 5 4 4 3 5 6 5 2 1 1 2 6 7 6 8 7 8 10 11
8 3 3 4 3 1 2 4 3 5 7 6 4 3 4 5 13 6 12 12 12 11 9 10 9 9 11 9 9 9 11 10 9 8 7 7 8 7 7 8 7 6 6 6 6 7 7 7 6 4 5 4 4 5 5 2 5 7 7 7 6 5 5 5 5 5 6 6 6 6 3 2 2 2 1 0 1 2 6 7 7 9 7 5 4
9 8 2 3 3 2 3 4 2 3 5 5 5 7 7 7 8 15 9 12 10 10 8 11 12 11 11 11 10 10 11 12 11 9 9 8 7 7 7 8 7 7 5 5 4 4 4 5 5 4 1 8 7 9 10 8 8 6 4 4 5 4 4 5 4 5 6 5 5 5 5 4 5 3 2 2 1 0 3 4 4 3 2 2 1
9 6 10 3 2 3 3 4 4 2 3 7 6 8 7 6 5 12 11 9 14 13 5 5 12 11 9 11 10 9 10 11 12 11 11 10 7 5 5 6 9 7 6 6 5 3 3 4 4 7 6 5 3 4 6 6 3 7 9 8 7 3 3 2 1 1 2 2 2 0 1 3 3 3 3 3 2 1 1 4 3 2 2 3 3
2 5 1 6 3 2 3 5 6 6 4 4 8 8 6 5 6 5 12 6 8 6 6 11 9 5 8 8 7 6 8 7 9 6 6 3 3 4 4 5 3 2 5 5 5 6 4 4 4 6 6 5 4 5 3 1 1 4 2 3 9 2 3 3 3 0 0 0 0 1 2 2 5 10 10 7 9 10 7 1 2 2 1 3 3
1 3 5 5 5 4 1 2 6 8 8 7 6 8 6 8 9 8 4 9 3 5 5 1 3 8 9 6 7 10 9 7 2 4 3 2 5 2 4 3 4 4 4 4 4 5 5 6 6 5 5 5 5 2 1 2 5 6 6 8 8 2 3 2 2 1 0 1 3 8 12 10 6 2 5 2 6 4 6 2 2 2 1 1 2
8 6 6 6 6 4 2 0 0 5 10 10 9 6 6 8 9 9 8 4 1 2 0 5 4 2 7 11 12 9 5 3 5 6 4 2 2 3 4 4 4 4 3 4 4 5 5 6 6 6 5 4 5 5 3 4 7 9 8 6 3 4 3 3 1 0 1 6 8 4 3 3 5 7 8 6 6 6 3 6 5 4 3 3 2
8 9 8 6 6 7 6 2 2 5 7 10 6 7 7 9 9 10 7 2 1 1 0 2 4 5 7 7 7 4 5 4 1 2 2 2 3 4 4 4 4 4 3 3 3 3 5 6 6 5 5 5 4 3 5 3 3 1 4 3 3 3 3 2 2 1 1 5 4 4 4 8 9 9 7 5 5 9 9 4 6 5 5 4 4
6 7 8 7 7 7 8 5 3 11 12 7 9 6 6 7 8 10 8 3 1 1 1 2 5 5 5 4 5 6 1 4 4 2 5 1 3 3 3 4 4 4 4 3 2 3 2 4 6 7 6 5 4 3 5 3 2 0 2 4 4 4 4 4 3 3 4 5 5 3 1 1 1 2 3 6 7 11 6 8 7 7 6 5 5
8 6 6 7 7 8 8 8 10 7 14 10 7 3 2 5 6 8 8 7 6 3 3 9 7 4 2 2 2 2 1 0 2 4 4 2 2 3 3 3 3 4 4 3 3 3 5 5 5 5 4 4 4 7 5 4 4 3 3 0 1 4 4 4 4 5 4 3 3 4 3 2 2 3 2 1 5 9 6 6 7 7 7 8 5
4 4 4 5 4 3 5 7 7 9 11 8 6 6 6 5 6 7 6 5 4 4 5 8 4 1 4 3 5 3 2 4 4 3 3 2 2 3 3 4 5 5 5 5 4 4 6 6 6 6 5 5 5 6 6 6 4 2 1 1 1 2 4 4 5 5 4 3 3 3 3 2 2 2 1 1 3 5 7 6 6 7 7 7 7
6 5 4 2 2 2 4 5 6 8 9 4 3 5 5 3 5 6 5 2 3 3 4 6 6 5 4 3 1 1 3 3 3 3 4 3 3 2 1 0 1 1 1 3 4 5 6 6 5 5 6 6 5 5 6 6 5 3 2 4 3 4 4 5 5 4 4 4 3 4 3 3 1 0 0 2 4 5 3 1 1 1 2 5 6
3 3 4 4 4 5 5 7 8 7 5 6 6 4 5 6 7 7 5 3 2 4 6 6 7 7 3 2 2 2 1 2 3 2 2 1 0 2 3 1 1 2 2 3 4 4 5 5 5 5 6 5 4 5 5 6 4 3 3 4 5 3 4 4 4 4 4 4 4 4 3 1 1 1 1 3 4 3 2 2 1 1 1 1 2
3 3 3 4 7 9 9 9 9 9 8 8 9 9 11 11 11 10 9 9 8 8 7 7 6 5 4 4 2 1 1 1 2 1 0 1 1 1 1 2 1 3 3 4 3 5 6 6 6 7 7 6 4 8 6 6 5 5 5 3 4 3 4 5 4 4 4 4 3 2 1 1 0 1 7 8 4 1 2 2 2 2 3 3 2
2 1 2 4 6 7 7 9 10 11 11 10 9 10 11 12 12 10 9 8 8 8 8 7 7 6 5 3 2 1 1 0 1 1 1 3 3 2 0 2 2 3 4 5 5 4 4 7 7 7 8 7 5 8 9 9 8 8 4 3 1 3 3 4 4 4 4 3 2 2 2 1 4 6 6 6 7 3 1 1 2 2 2 2 3
0 1 2 4 6 7 9 10 11 11 10 8 9 9 11 11 10 9 8 9 9 8 6 6 7 6 6 6 5 5 4 2 3 5 5 3 1 1 3 3 4 4 4 4 5 5 4 4 7 8 7 7 5 8 11 10 10 11 5 3 1 1 2 2 2 2 4 3 3 5 7 6 5 3 4 5 6 4 4 3 3 3 2 2 1
1 1 3 6 8 9 9 10 11 11 9 8 8 10 11 10 9 9 9 9 9 7 7 7 6 5 6 6 6 7 7 7 7 7 6 4 3 4 5 5 4 4 4 3 3 4 7 9 9 9 12 9 6 7 12 12 14 14 8 3 4 1 3 2 2 3 3 4 6 9 12 8 5 3 5 6 7 5 3 2 3 4 3 2 3
0 2 6 7 7 8 11 11 11 10 9 9 9 10 10 9 9 9 10 9 8 6 6 5 4 6 6 6 7 8 7 7 7 7 6 5 5 5 6 6 3 3 4 3 7 8 12 9 8 9 8 7 7 8 10 14 15 16 13 7 6 6 5 4 0 4 4 4 6 5 6 6 6 6 6 6 6 7 3 2 2 2 2 1 3
3 5 8 7 8 9 10 10 9 8 8 8 9 11 10 9 8 9 9 7 6 6 6 6 6 7 7 8 7 7 8 7 7 6 6 7 6 6 7 8 10 11 10 7 7 10 12 10 8 8 8 7 6 7 9 13 14 15 14 10 6 5 4 3 5 2 4 5 5 3 2 4 6 5 5 6 6 5 2 2 3 2 1 2 4
3 4 5 7 8 9 10 10 9 8 8 8 8 10 8 7 8 10 8 6 6 6 7 8 9 9 10 9 9 8 8 8 8 7 7 7 6 7 7 8 9 10 10 9 10 10 10 10 8 8 7 7 7 10 5 11 12 12 12 12 7 5 4 2 3 6 5 5 3 3 3 4 6 7 7 7 8 7 7 4 2 2 6 6 4
3 7 7 7 7 8 10 9 8 7 7 6 8 9 7 7 9 7 6 7 7 7 8 8 9 9 9 9 8 8 8 6 6 6 7 8 7 8 8 9 9 9 9 9 9 9 9 8 8 7 6 6 5 6 10 8 10 11 12 11 11 9 11 8 6 6 6 5 5 3 4 8 6 6 6 6 5 6 5 3 4 5 7 7 4
8 9 5 6 8 8 9 8 7 7 7 7 8 8 8 9 8 5 5 5 5 6 5 6 7 7 6 6 6 6 6 5 6 6 6 7 8 8 8 7 7 8 8 9 7 7 7 7 7 7 6 5 5 4 7 9 6 8 9 10 10 11 9 5 5 4 4 5 3 2 3 3 5 6 7 7 6 4 3 5 6 8 7 5 3
10 9 6 6 10 9 8 7 6 6 6 6 6 7 7 8 5 5 6 7 8 8 8 7 6 6 7 8 9 9 9 8 9 9 8 8 7 5 6 5 6 7 7 8 7 6 7 5 7 7 5 3 1 1 3 6 9 7 9 10 10 10 10 5 4 5 5 3 1 2 4 6 5 7 9 9 6 3 4 4 6 7 7 4 5
7 5 4 6 8 9 9 9 6 5 4 4 5 6 8 6 5 5 5 7 8 8 9 9 9 9 9 9 10 10 10 9 9 7 8 7 7 7 6 6 5 4 5 6 5 6 5 5 5 5 4 2 3 4 5 4 4 7 8 11 10 10 12 12 10 6 8 7 4 4 5 6 7 7 5 4 3 2 4 6 10 9 5 5 5
11 12 12 10 9 9 9 7 7 5 4 3 4 4 5 5 6 5 4 4 5 7 8 8 9 9 9 9 9 8 8 9 8 7 7 7 7 7 7 6 6 6 5 4 4 4 4 4 4 4 4 3 3 4 5 5 6 6 5 6 7 7 10 10 6 5 6 6 6 5 2 2 3 5 4 5 5 4 4 6 6 6 6 6 6
11 10 11 11 10 9 9 10 9 7 6 7 7 7 7 6 3 4 5 3 3 4 5 6 8 8 8 8 8 12 10 8 8 8 8 7 7 7 7 7 6 5 6 6 6 6 5 5 4 3 3 4 4 5 6 5 6 5 5 4 4 4 4 3 4 4 5 4 3 3 4 3 3 3 4 4 5 6 6 6 6 7 7 8 9
10 9 8 9 6 7 7 8 7 7 9 8 7 7 8 7 6 7 5 5 5 4 4 5 6 6 7 6 7 7 7 6 7 7 7 5 5 5 5 5 4 3 3 4 5 5 4 4 5 5 4 5 5 5 4 3 3 3 3 4 5 4 3 3 3 5 5 3 2 1 2 3 3 4 5 5 5 6 6 7 8 7 7 8 7
6 7 8 8 7 8 8 7 5 5 6 7 9 9 8 8 8 7 8 8 6 7 9 9 7 7 7 6 5 5 5 6 6 6 6 6 7 8 6 4 4 5 6 5 3 4 1 3 6 4 3 5 4 1 1 2 2 3 4 5 6 6 5 5 5 5 2 2 2 6 6 6 6 5 5 5 5 5 6 6 7 7 7 7 7
8 7 8 7 7 7 7 7 7 6 7 7 7 6 6 7 7 7 7 7 7 8 7 6 6 7 6 6 6 6 5 5 5 5 6 6 5 6 8 9 7 5 4 5 8 7 8 7 5 5 4 6 6 3 1 3 3 2 3 3 5 7 6 4 4 1 2 5 10 10 8 7 7 7 7 7 7 7 6 5 6 6 7 8 7
Wind_Direction
151 140 135 175 162 126 124 125 131 120 125 131 127 130 138 141 147 150 151 147 143 144 146 147 154 158 142 162 173 180 185 200 245 198 206 163 156 152 153 165 171 181 184 154 153 177 208 273 276 26 337 54 322 297 294 311 52 104 218 194 207 264 316 27 108 93 62 356 351 344 327 298 303 37 279 9 35 9 66 79 286 252 251 259 264
143 129 143 174 142 138 130 133 124 124 131 132 127 135 140 145 148 149 153 152 154 156 153 156 171 170 166 175 168 171 171 186 227 191 199 148 148 157 167 167 177 180 180 162 172 167 201 209 260 200 110 311 280 293 329 357 2 353 350 304 245 220 228 157 180 93 29 130 21 318 338 332 315 62 53 25 333 357 2 7 334 336 302 229 245
142 136 145 177 175 143 138 133 129 131 135 137 136 139 143 148 149 152 156 159 161 162 159 168 174 176 172 173 178 167 183 190 192 181 170 150 159 171 165 166 173 175 178 178 169 155 176 182 240 155 193 137 29 349 348 330 337 298 311 224 301 260 228 286 161 143 184 141 146 68 339 3 321 348 358 35 337 15 15 352 332 335 311 315 312
154 149 154 159 162 156 141 136 136 137 139 141 147 146 148 151 155 155 164 164 166 170 172 172 172 177 181 175 180 171 178 192 172 164 163 148 163 168 162 166 167 180 179 188 178 164 150 185 148 153 234 209 174 223 290 280 10 343 306 84 93 19 358 328 14 195 144 124 12 179 224 133 310 299 283 288 1 319 71 12 323 296 292 348 36
154 155 153 156 162 162 149 140 142 147 150 151 154 157 155 153 153 158 168 173 175 174 174 171 173 176 171 167 174 177 167 160 148 159 152 153 159 164 166 162 181 181 190 173 151 175 160 179 164 195 235 231 178 144 212 250 239 315 57 39 53 133 16 347 315 164 143 181 141 107 358 10 238 251 304 299 351 346 323 294 304 291 303 355 7
166 157 160 156 171 162 156 142 148 154 157 156 157 164 150 153 153 160 171 172 175 168 169 168 171 166 158 171 174 174 149 157 167 162 156 163 171 164 165 176 185 186 177 165 168 163 163 175 173 199 219 238 207 182 188 33 57 94 5 96 57 56 132 36 321 321 129 202 173 166 162 182 200 286 52 302 313 251 293 306 241 265 315 336 353
179 152 156 154 170 159 164 155 155 161 162 155 163 159 151 154 160 165 166 162 164 168 156 158 162 153 168 171 165 157 148 163 161 152 158 165 160 166 176 182 191 175 168 169 169 177 172 184 180 182 200 215 138 65 88 129 63 106 10 27 130 105 75 74 311 292 347 352 118 119 75 75 100 100 161 342 351 316 327 291 292 270 48 358 339
195 156 155 159 170 165 174 164 166 163 159 160 166 151 155 160 164 169 162 157 167 155 146 150 143 145 152 149 151 146 156 159 162 163 163 161 160 168 176 180 189 182 164 171 178 182 185 190 182 176 191 184 117 132 139 142 94 334 178 342 31 124 140 157 255 296 62 288 9 83 78 61 52 82 111 148 181 283 318 313 294 261 21 308 91
236 165 160 160 166 166 176 174 168 164 163 165 168 152 156 158 162 163 160 158 166 152 147 143 140 152 143 140 132 154 153 163 164 166 149 155 154 166 169 175 180 182 166 177 174 181 192 187 188 195 168 183 169 151 165 161 150 209 33 274 197 159 192 220 155 268 262 266 66 39 46 49 63 79 111 76 141 111 287 305 309 338 314 315 6
280 186 161 162 168 169 171 171 174 173 165 166 155 150 153 158 163 163 164 159 163 154 149 150 156 166 155 151 151 165 170 177 139 159 153 155 156 166 168 176 170 171 169 169 173 189 196 194 182 192 185 194 172 161 155 146 192 150 184 244 209 188 224 185 215 233 255 292 109 151 122 37 40 22 30 82 39 167 245 286 346 347 6 297 21
256 260 159 169 163 164 164 174 185 181 169 166 148 154 154 159 166 167 165 159 162 157 159 164 166 179 173 166 170 175 175 172 141 155 150 155 159 169 169 181 172 175 174 187 185 198 199 188 193 204 201 178 159 162 168 182 180 195 211 187 157 200 224 245 277 313 177 310 67 139 154 174 170 179 214 200 123 231 321 305 301 353 117 325 298
239 253 164 168 161 169 167 179 184 179 175 170 147 154 155 159 165 168 165 161 164 165 165 175 173 182 181 167 177 170 169 167 155 161 159 165 166 173 176 176 191 179 180 188 195 195 197 196 204 195 171 161 163 173 187 182 185 174 173 154 176 177 198 177 240 315 312 323 265 94 142 167 170 169 180 164 149 217 195 278 302 309 354 248 304
242 246 221 163 171 168 168 174 182 190 178 177 150 156 156 160 163 169 175 163 167 170 175 179 175 180 183 172 175 164 159 151 158 159 163 165 171 175 169 182 195 188 192 186 192 201 187 192 198 170 169 177 177 159 179 187 153 148 172 180 174 181 196 153 117 243 250 183 230 160 122 183 201 198 152 147 174 165 121 321 290 57 343 310 299
232 238 246 158 165 176 175 173 173 196 191 181 155 156 157 162 165 172 178 165 166 173 177 180 179 178 178 168 167 157 163 165 166 166 174 173 175 178 178 182 194 203 194 183 192 196 181 187 189 190 183 184 182 177 176 185 155 163 173 184 187 190 167 172 197 238 260 253 233 107 112 178 234 165 164 179 179 126 200 230 314 350 27 316 295
227 236 236 221 165 177 176 173 167 182 192 193 160 156 158 161 167 171 175 170 168 174 176 182 180 178 176 169 169 164 169 172 177 178 178 180 191 186 188 187 189 207 211 192 195 191 188 185 185 186 190 185 185 188 183 182 175 180 192 207 199 170 182 196 210 235 258 255 129 122 156 210 210 189 177 210 190 189 165 58 226 269 334 355 348
227 225 216 244 186 178 175 179 175 179 187 194 159 158 161 163 168 170 178 175 171 172 180 181 180 180 175 175 174 170 178 179 185 177 179 181 193 199 193 191 192 193 208 210 204 189 179 186 185 181 181 183 181 187 185 190 190 187 199 205 219 208 199 205 226 232 258 281 262 167 165 204 203 193 195 197 193 195 138 102 103 129 124 298 327
214 215 211 186 311 185 183 180 178 183 179 182 157 164 161 162 166 168 178 180 176 175 178 178 183 174 184 179 177 174 179 189 190 193 187 189 188 200 200 193 197 193 205 204 200 204 161 178 179 183 180 180 183 190 196 191 192 193 192 197 206 233 175 204 198 208 238 250 254 192 173 171 196 193 193 193 215 203 171 150 174 158 159 144 221
197 196 184 196 166 240 226 176 178 173 174 171 159 164 161 164 167 167 176 181 181 180 177 180 181 182 183 186 186 183 184 190 194 193 197 193 196 201 199 205 207 196 199 208 187 193 180 171 179 183 182 178 186 189 193 205 185 191 194 202 214 214 213 216 212 214 239 248 263 228 143 177 183 175 185 192 199 198 178 128 174 163 143 154 157
229 191 136 144 180 170 192 191 185 169 169 178 163 159 162 165 170 169 176 181 180 182 181 181 181 186 185 188 188 189 191 194 192 189 196 205 208 201 208 197 205 211 202 210 186 184 186 176 170 180 179 182 184 191 193 198 196 198 200 205 213 207 209 204 206 206 236 243 256 258 165 127 162 179 204 210 204 192 163 122 162 140 174 137 158
244 201 117 292 269 199 176 210 200 182 169 180 172 164 164 167 170 171 175 176 177 184 182 185 187 188 186 184 191 191 194 197 197 187 192 206 207 207 203 207 207 196 207 224 193 181 188 181 188 174 182 185 190 199 191 195 195 195 200 207 221 213 216 213 221 214 234 234 231 252 129 195 185 182 226 217 215 205 137 173 188 174 195 168 159
250 199 164 200 224 198 57 30 14 339 287 172 170 167 166 167 172 173 173 179 181 184 183 185 185 193 189 187 190 193 197 197 201 197 195 196 201 202 193 197 215 218 200 201 214 195 176 196 186 190 196 192 183 195 199 185 191 194 199 200 224 207 208 221 205 227 247 275 271 245 226 182 176 184 218 233 224 169 172 181 169 134 200 225 197
240 224 178 204 194 141 104 75 74 80 0 346 186 157 197 174 175 175 174 179 185 184 184 180 183 188 198 187 192 192 200 203 207 201 201 200 198 198 197 194 199 212 201 198 195 200 201 179 193 193 195 203 200 197 196 193 194 196 195 201 216 232 211 210 203 217 231 239 246 283 291 275 230 215 213 209 200 171 206 139 197 180 182 191 213
338 44 43 153 164 183 127 100 108 110 106 81 352 318 356 280 178 174 175 180 184 185 182 176 181 184 195 191 187 189 193 204 212 215 207 210 209 198 200 202 201 200 201 201 189 191 191 201 199 190 193 205 206 202 198 191 191 189 195 203 205 208 215 210 203 211 218 222 240 248 255 251 253 247 265 157 250 147 203 188 189 222 203 200 180
321 356 42 53 58 53 77 105 112 120 104 119 133 63 1 7 316 209 176 179 180 185 176 172 181 184 191 197 190 187 189 197 207 214 220 208 209 203 197 203 207 202 196 198 187 180 176 182 195 207 206 199 189 181 181 222 206 182 192 204 203 199 195 200 210 217 220 221 222 227 246 281 233 180 181 149 174 118 136 163 158 177 183 190 197
322 330 336 84 95 120 140 130 136 117 122 126 128 105 71 7 317 299 221 177 179 182 176 177 180 184 188 200 196 190 188 191 201 206 219 221 213 207 197 200 199 198 204 180 187 168 174 181 203 198 93 68 32 359 13 6 335 291 215 200 202 209 216 215 205 205 217 218 223 199 182 228 235 201 210 219 97 47 87 113 128 149 160 184 105
314 326 331 334 117 137 135 146 162 142 133 133 122 91 77 80 24 333 311 34 35 6 9 177 181 185 190 195 198 192 191 189 194 203 206 209 220 220 201 206 198 195 184 169 156 150 156 137 101 85 95 96 110 136 153 162 197 306 328 337 310 227 206 211 191 77 62 62 45 75 234 230 183 185 192 170 172 201 119 116 116 140 155 142 140
327 300 317 314 348 53 146 150 148 142 133 103 117 113 113 105 75 9 342 347 99 102 30 357 332 236 189 190 188 189 194 186 187 186 177 147 125 79 64 78 54 144 139 128 125 123 119 125 115 108 113 139 160 169 148 73 249 234 141 231 242 182 123 128 126 135 222 169 148 241 309 347 9 20 7 17 15 349 347 318 165 175 156 151 166
34 7 345 339 339 350 0 185 160 148 134 122 114 123 124 105 104 98 44 329 351 113 121 80 63 350 348 346 24 17 18 16 345 155 157 156 95 98 126 99 98 84 77 100 119 117 107 103 113 113 132 148 145 118 119 197 219 219 215 221 216 173 157 136 133 150 156 135 48 27 22 20 32 204 265 140 146 190 217 220 248 149 131 306 213
22 22 7 345 341 337 331 321 284 141 135 131 129 130 122 114 107 108 121 222 175 14 309 150 148 163 74 58 33 14 355 37 349 4 20 24 93 133 118 118 113 116 117 123 127 129 131 131 136 144 149 150 148 164 176 216 224 221 205 207 176 165 154 139 128 268 156 74 67 112 156 206 191 212 226 204 210 189 209 180 201 152 171 203 228
19 16 11 354 359 352 342 289 212 168 146 127 126 131 142 129 111 107 103 284 30 101 102 22 33 56 82 109 142 166 251 245 286 4 355 41 58 67 85 91 82 80 85 82 103 146 153 150 148 139 154 165 147 146 189 221 315 166 149 151 130 130 119 119 152 183 67 103 110 137 188 208 202 199 203 233 262 207 189 171 170 172 177 186 198
8 23 1 3 6 356 354 345 263 219 136 113 107 110 118 120 125 121 121 195 302 200 132 103 104 80 82 127 162 202 100 1 360 344 308 339 88 96 112 118 124 120 117 126 150 173 158 131 144 155 163 165 147 119 97 133 159 10 143 167 174 170 164 163 147 126 112 102 120 141 177 356 63 192 220 227 245 258 200 176 188 194 184 175 189
5 358 31 14 354 2 357 346 1 344 95 92 85 97 140 134 133 125 140 159 177 159 99 68 46 33 90 89 56 54 58 347 259 247 257 261 136 131 134 141 144 140 144 151 153 164 137 137 137 148 153 141 97 58 57 47 31 20 7 73 143 146 136 128 117 120 135 166 175 167 174 185 215 231 218 274 264 259 229 200 202 216 222 224 223
0 9 28 74 335 335 343 16 6 8 57 77 103 114 116 141 132 131 143 163 155 124 102 96 110 312 280 181 156 145 205 245 260 284 276 233 177 174 170 171 174 168 154 158 174 153 140 141 143 145 137 106 88 51 60 59 49 54 327 226 201 152 139 147 136 139 159 167 183 191 190 199 211 298 341 273 271 273 254 219 215 220 223 220 219
343 344 339 334 237 315 20 26 41 24 27 36 81 90 89 98 115 108 104 98 81 87 97 111 140 172 263 328 45 164 188 220 253 262 263 243 201 188 176 95 60 57 134 156 163 152 151 157 158 148 117 99 94 53 65 70 66 42 283 259 209 207 159 145 149 152 153 170 190 198 188 175 156 176 17 329 296 257 243 280 322 293 232 248 233
331 335 340 13 41 44 37 35 42 42 24 23 35 58 69 53 50 64 63 73 51 73 93 117 134 152 186 236 181 157 164 183 201 224 288 338 35 45 62 65 134 136 144 162 166 167 160 154 151 128 106 85 62 43 66 64 44 343 290 266 242 203 153 152 152 166 169 165 181 193 200 187 120 124 218 259 282 318 288 259 247 252 288 303 337
12 1 348 30 44 44 34 31 37 39 36 40 48 51 58 52 50 52 57 55 57 57 55 62 67 68 74 53 40 75 71 340 337 336 341 300 347 62 70 347 268 173 155 149 168 169 166 156 152 121 103 86 45 12 22 46 43 12 331 263 241 163 161 159 169 166 172 172 168 167 164 127 173 83 36 26 12 315 317 297 307 308 309 311 306
3 38 56 50 64 64 54 51 46 44 41 36 49 57 58 58 52 48 58 58 58 55 46 45 47 43 46 57 67 101 93 104 48 359 51 53 41 44 102 208 238 221 187 176 170 190 170 158 137 112 103 92 61 20 14 18 32 27 10 286 180 147 168 157 167 182 159 155 124 162 174 147 70 68 42 27 349 7 31 282 258 254 262 284 298
195 39 53 62 64 68 64 62 58 50 47 44 49 63 69 64 61 53 56 60 57 48 44 47 46 41 42 41 44 44 46 47 79 63 55 46 17 260 229 216 214 224 212 191 181 188 158 108 104 102 104 98 80 39 33 22 30 32 23 359 347 180 145 143 151 127 127 146 221 145 102 72 79 68 54 54 19 41 44 1 334 309 291 266 312
98 76 84 76 72 74 74 73 67 59 50 52 61 68 72 76 78 80 70 62 61 57 48 44 42 47 51 47 47 52 53 55 54 48 38 15 341 324 316 300 261 220 209 211 197 114 74 84 89 96 90 86 78 54 40 33 35 36 32 24 19 12 144 121 110 92 98 92 61 62 74 84 95 99 61 49 37 59 77 15 2 353 337 19 47
164 93 91 86 81 77 74 71 67 66 65 63 68 72 72 76 75 76 76 73 73 75 87 95 86 68 65 60 54 57 54 54 53 44 34 21 17 18 7 359 326 240 191 123 104 106 98 82 86 87 82 79 74 57 43 42 42 39 33 51 41 35 14 350 164 156 124 104 82 68 59 67 75 71 68 55 42 23 45 357 1 52 44 315 334
91 71 81 76 71 68 67 66 70 72 70 69 70 71 68 65 67 71 70 72 69 69 69 73 74 75 74 72 68 65 61 56 52 55 49 42 31 32 31 46 52 47 49 46 74 81 81 77 68 68 74 67 72 72 51 49 50 50 45 47 55 50 9 344 312 84 85 106 90 69 57 54 49 53 47 48 41 31 8 58 50 22 9 324 303
125 103 94 86 75 75 75 74 71 71 70 70 75 80 79 74 73 74 77 73 65 61 61 61 58 60 59 56 55 54 53 54 49 47 49 42 34 41 48 60 67 69 59 51 52 58 71 72 61 54 57 56 57 68 67 54 54 53 53 54 59 35 356 281 30 78 75 71 78 69 42 42 22 24 22 24 25 23 40 55 34 309 288 288 276
134 87 91 98 97 87 84 87 85 82 76 72 79 82 78 74 70 69 84 89 81 71 67 68 68 68 66 67 64 62 58 56 58 56 59 53 41 44 47 52 59 65 72 69 64 65 68 72 68 56 40 42 32 50 59 57 54 60 54 46 39 40 30 43 33 46 46 46 44 38 62 55 29 10 359 357 7 13 49 37 336 323 306 293 292
142 122 128 120 106 102 96 89 85 81 80 78 79 82 79 77 69 59 63 75 87 93 90 82 79 76 74 70 69 68 67 66 61 56 59 62 56 56 55 55 58 67 71 68 61 69 66 57 63 59 50 37 29 11 54 68 66 50 46 36 32 27 27 47 55 59 50 47 34 0 27 30 39 7 351 343 339 1 16 343 344 330 343 21 13
123 130 134 117 105 102 101 103 102 98 94 95 89 88 85 79 73 71 76 78 74 68 65 61 55 57 62 61 54 46 40 39 41 41 41 36 40 38 58 51 68 73 75 78 74 69 69 70 66 63 55 37 346 338 24 49 50 51 43 38 33 23 26 41 76 48 56 53 82 59 37 17 17 26 7 336 318 15 24 4 348 351 29 16 20
89 114 139 115 107 112 119 120 115 106 95 90 89 93 93 95 93 83 79 86 90 88 80 72 65 59 57 61 60 53 49 41 40 40 46 46 45 41 43 31 35 57 77 89 86 87 88 85 85 86 88 62 30 30 35 35 28 27 27 20 21 23 32 38 51 39 26 15 23 60 42 28 18 20 12 334 329 19 23 33 40 48 31 33 27
79 71 75 72 72 72 70 80 96 105 106 99 98 99 117 130 123 117 99 84 78 84 88 87 81 74 68 66 66 62 56 48 43 42 42 45 45 41 41 41 37 29 31 60 81 84 87 94 108 125 137 132 80 48 30 20 18 16 19 13 15 22 21 26 24 13 9 5 350 4 4 337 359 343 320 295 301 33 63 54 41 35 32 33 45
73 75 78 80 76 74 73 69 63 62 74 83 78 67 59 55 67 113 135 116 94 91 93 100 98 94 85 76 73 69 66 60 50 48 44 38 39 44 50 39 25 14 39 46 47 50 49 52 47 46 80 77 59 45 29 15 6 9 1 6 21 34 35 9 11 360 346 330 330 335 7 21 12 6 6 14 53 57 52 48 40 35 31 26 33
55 61 70 77 78 77 75 69 64 60 60 51 48 52 50 41 37 47 78 92 94 90 95 104 104 95 92 94 91 87 81 78 73 65 60 44 24 24 60 68 28 357 353 39 63 62 59 62 69 42 49 65 43 36 19 352 5 1 360 354 4 10 6 341 358 4 328 322 320 30 44 35 19 15 15 33 56 65 63 55 53 44 37 32 28
46 53 58 62 60 67 64 64 57 60 66 68 63 58 52 51 48 49 63 75 76 71 66 64 66 80 83 80 84 93 101 95 89 91 89 74 59 61 27 68 82 40 39 6 33 95 73 69 79 42 21 75 86 123 274 335 306 305 294 279 284 292 289 279 289 315 289 301 68 70 52 49 42 40 55 59 56 62 65 57 53 50 43 41 36
21 48 58 61 67 65 72 71 70 64 66 69 69 62 61 57 56 60 70 77 73 71 67 66 75 82 92 99 96 92 97 108 113 108 96 93 88 62 60 51 54 75 69 79 85 86 71 55 82 100 50 64 92 89 349 294 310 299 285 293 318 310 317 297 266 238 135 66 65 64 65 63 62 57 47 40 41 48 55 65 56 45 41 37 33